When you browse on this site, cookies collect data to enhance your experience and personalize the content and advertising you see.
Visit our Privacy Policy to learn more. By continuing to use the site, you agree to this use of cookies and data.

Hourly Weather San Juan

Today, 13 August, Thursday

Time Temperature Precipitation Wind Pressure Humidity
00:00 +7°C° 0 mm 0 mps 703 mmHg 24%
01:00 +7°C° 0 mm 0 mps 703 mmHg 25%
02:00 +8°C° 0 mm 1 mps 703 mmHg 25%
03:00 +8°C° 0 mm 1 mps 703 mmHg 25%
04:00 +8°C° 0 mm 1 mps 703 mmHg 25%
05:00 +8°C° 0 mm 1 mps 703 mmHg 24%
06:00 +9°C° 0 mm 1 mps 703 mmHg 23%
07:00 +9°C° 0 mm 1 mps 703 mmHg 22%
08:00 +12°C° 0 mm 1 mps 704 mmHg 19%
09:00 +15°C° 0 mm 1 mps 704 mmHg 16%
10:00 +17°C° 0 mm 2 mps 704 mmHg 12%
11:00 +18°C° 0 mm 2 mps 703 mmHg 11%
12:00 +19°C° 0 mm 2 mps 702 mmHg 11%
13:00 +20°C° 0 mm 2 mps 701 mmHg 10%
14:00 +20°C° 0 mm 2 mps 701 mmHg 9%
15:00 +21°C° 0 mm 2 mps 701 mmHg 9%
16:00 +21°C° 0 mm 2 mps 700 mmHg 9%
17:00 +18°C° 0 mm 2 mps 700 mmHg 11%
18:00 +16°C° 0 mm 2 mps 700 mmHg 14%
19:00 +14°C° 0 mm 1 mps 700 mmHg 16%
20:00 +13°C° 0 mm 1 mps 700 mmHg 17%
21:00 +12°C° 0 mm 1 mps 699 mmHg 18%
22:00 +11°C° 0 mm 1 mps 699 mmHg 19%
23:00 +11°C° 0 mm 1 mps 699 mmHg 18%

Tomorrow, 14 August, Friday

Time Temperature Precipitation Wind Pressure Humidity
00:00 +11°C° 0 mm 1 mps 698 mmHg 18%
01:00 +10°C° 0 mm 2 mps 698 mmHg 18%
02:00 +9°C° 0 mm 2 mps 698 mmHg 19%
03:00 +10°C° 0 mm 1 mps 698 mmHg 20%
04:00 +9°C° 0 mm 1 mps 698 mmHg 21%
05:00 +10°C° 0 mm 1 mps 699 mmHg 21%
06:00 +9°C° 0 mm 2 mps 700 mmHg 20%
07:00 +10°C° 0 mm 2 mps 701 mmHg 19%
08:00 +12°C° 0 mm 4 mps 701 mmHg 18%
09:00 +14°C° 0 mm 6 mps 702 mmHg 17%
10:00 +15°C° 0 mm 7 mps 702 mmHg 16%
11:00 +16°C° 0 mm 8 mps 702 mmHg 16%
12:00 +17°C° 0 mm 9 mps 702 mmHg 16%
13:00 +18°C° 0 mm 10 mps 702 mmHg 16%
14:00 +17°C° 0 mm 9 mps 702 mmHg 17%
15:00 +17°C° 0 mm 8 mps 702 mmHg 19%
16:00 +16°C° 0 mm 7 mps 702 mmHg 20%
17:00 +15°C° 0 mm 6 mps 703 mmHg 24%
18:00 +13°C° 0 mm 5 mps 703 mmHg 29%
19:00 +12°C° 0 mm 3 mps 704 mmHg 33%
20:00 +11°C° 0 mm 3 mps 704 mmHg 35%
21:00 +10°C° 0 mm 3 mps 704 mmHg 37%
22:00 +10°C° 0 mm 2 mps 704 mmHg 39%
23:00 +9°C° 0 mm 2 mps 703 mmHg 41%

Day after tomorrow, 15 August, Saturday

Time Temperature Precipitation Wind Pressure Humidity
00:00 +9°C° 0 mm 1 mps 703 mmHg 43%
01:00 +8°C° 0 mm 1 mps 702 mmHg 44%
02:00 +8°C° 0 mm 1 mps 702 mmHg 45%
03:00 +7°C° 0 mm 1 mps 701 mmHg 45%
04:00 +7°C° 0 mm 1 mps 701 mmHg 46%
05:00 +8°C° 0 mm 1 mps 701 mmHg 44%
06:00 +8°C° 0 mm 1 mps 702 mmHg 42%
07:00 +8°C° 0 mm 0 mps 702 mmHg 40%
08:00 +11°C° 0 mm 1 mps 702 mmHg 35%
09:00 +13°C° 0 mm 1 mps 702 mmHg 30%
10:00 +15°C° 0 mm 2 mps 701 mmHg 25%
11:00 +16°C° 0 mm 3 mps 701 mmHg 23%
12:00 +17°C° 0 mm 4 mps 701 mmHg 21%
13:00 +17°C° 0 mm 6 mps 701 mmHg 19%
14:00 +17°C° 0 mm 6 mps 702 mmHg 18%
15:00 +17°C° 0 mm 7 mps 702 mmHg 17%
16:00 +17°C° 0 mm 8 mps 702 mmHg 16%
17:00 +15°C° 0 mm 8 mps 703 mmHg 18%
18:00 +13°C° 0 mm 8 mps 704 mmHg 21%
19:00 +11°C° 0 mm 8 mps 705 mmHg 23%
20:00 +10°C° 0 mm 7 mps 706 mmHg 25%
21:00 +9°C° 0 mm 5 mps 706 mmHg 26%
22:00 +9°C° 0 mm 3 mps 707 mmHg 28%
23:00 +8°C° 0 mm 3 mps 706 mmHg 29%

16 August, Sunday

Time Temperature Precipitation Wind Pressure Humidity
00:00 +8°C° 0 mm 2 mps 706 mmHg 30%
01:00 +8°C° 0 mm 1 mps 706 mmHg 31%
02:00 +7°C° 0 mm 1 mps 705 mmHg 33%
03:00 +6°C° 0 mm 1 mps 705 mmHg 34%
04:00 +4°C° 0 mm 0 mps 704 mmHg 36%
05:00 +6°C° 0 mm 1 mps 704 mmHg 34%
06:00 +7°C° 0 mm 1 mps 704 mmHg 32%
07:00 +8°C° 0 mm 1 mps 705 mmHg 30%
08:00 +9°C° 0 mm 2 mps 704 mmHg 27%
09:00 +12°C° 0 mm 2 mps 704 mmHg 24%
10:00 +14°C° 0 mm 2 mps 704 mmHg 20%
11:00 +16°C° 0 mm 2 mps 703 mmHg 19%
12:00 +17°C° 0 mm 2 mps 703 mmHg 18%
13:00 +18°C° 0 mm 2 mps 702 mmHg 16%
14:00 +18°C° 0 mm 2 mps 702 mmHg 16%
15:00 +18°C° 0 mm 3 mps 702 mmHg 16%
16:00 +18°C° 0 mm 3 mps 702 mmHg 16%
17:00 +17°C° 0 mm 3 mps 702 mmHg 19%
18:00 +15°C° 0 mm 2 mps 702 mmHg 22%
19:00 +13°C° 0 mm 2 mps 702 mmHg 25%
20:00 +13°C° 0 mm 2 mps 703 mmHg 26%
21:00 +12°C° 0 mm 2 mps 703 mmHg 26%
22:00 +12°C° 0 mm 2 mps 703 mmHg 27%
23:00 +10°C° 0 mm 2 mps 703 mmHg 28%

17 August, Monday

Time Temperature Precipitation Wind Pressure Humidity
00:00 +10°C° 0 mm 2 mps 703 mmHg 30%
01:00 +9°C° 0 mm 2 mps 703 mmHg 32%
02:00 +9°C° 0 mm 1 mps 703 mmHg 33%
03:00 +9°C° 0 mm 1 mps 703 mmHg 35%
04:00 +8°C° 0 mm 1 mps 702 mmHg 36%
05:00 +9°C° 0 mm 1 mps 703 mmHg 35%
06:00 +9°C° 0 mm 0 mps 703 mmHg 34%
07:00 +9°C° 0 mm 0 mps 704 mmHg 33%
08:00 +11°C° 0 mm 0 mps 704 mmHg 29%
09:00 +14°C° 0 mm 1 mps 704 mmHg 26%
10:00 +18°C° 0 mm 1 mps 704 mmHg 22%
11:00 +19°C° 0 mm 1 mps 703 mmHg 21%
12:00 +20°C° 0 mm 1 mps 702 mmHg 20%
13:00 +21°C° 0 mm 1 mps 702 mmHg 19%
14:00 +21°C° 0 mm 1 mps 702 mmHg 18%
15:00 +20°C° 0 mm 2 mps 701 mmHg 18%
16:00 +20°C° 0 mm 2 mps 701 mmHg 17%
17:00 +19°C° 0 mm 2 mps 702 mmHg 21%
18:00 +17°C° 0 mm 2 mps 702 mmHg 24%
19:00 +15°C° 0 mm 2 mps 702 mmHg 28%
20:00 +15°C° 0 mm 2 mps 702 mmHg 29%
21:00 +14°C° 0 mm 2 mps 702 mmHg 30%
22:00 +13°C° 0 mm 2 mps 702 mmHg 31%
23:00 +13°C° 0 mm 1 mps 702 mmHg 32%

18 August, Tuesday

Time Temperature Precipitation Wind Pressure Humidity
00:00 +12°C° 0 mm 1 mps 702 mmHg 34%
01:00 +12°C° 0 mm 1 mps 702 mmHg 35%
02:00 +11°C° 0 mm 1 mps 702 mmHg 35%
03:00 +10°C° 0 mm 2 mps 702 mmHg 35%
04:00 +10°C° 0 mm 2 mps 702 mmHg 35%
05:00 +10°C° 0 mm 2 mps 702 mmHg 35%
06:00 +10°C° 0 mm 3 mps 702 mmHg 36%
07:00 +9°C° 0 mm 3 mps 702 mmHg 36%
08:00 +11°C° 0 mm 3 mps 702 mmHg 32%
09:00 +13°C° 0 mm 4 mps 702 mmHg 29%
10:00 +14°C° 0 mm 4 mps 702 mmHg 26%
11:00 +15°C° 0 mm 4 mps 702 mmHg 24%
12:00 +18°C° 0 mm 4 mps 701 mmHg 23%
13:00 +19°C° 0 mm 4 mps 700 mmHg 21%
14:00 +17°C° 0 mm 5 mps 700 mmHg 21%
15:00 +17°C° 0 mm 5 mps 700 mmHg 22%
16:00 +17°C° 0 mm 5 mps 700 mmHg 22%
17:00 +16°C° 0 mm 5 mps 701 mmHg 25%
18:00 +14°C° 0 mm 5 mps 701 mmHg 28%
19:00 +13°C° 0 mm 4 mps 701 mmHg 32%
20:00 +12°C° 0 mm 4 mps 702 mmHg 34%
21:00 +11°C° 0 mm 4 mps 702 mmHg 36%
22:00 +10°C° 0 mm 4 mps 703 mmHg 37%
23:00 +10°C° 0 mm 4 mps 703 mmHg 38%
Show more